Home   Weather   Einsiedeln   Past weeks

Flag for Switzerland Past Weather in Einsiedeln, Schwyz, Switzerland — Yesterday and Last 2 Weeks

Now
22 °F

Cold.


Feels Like: 18 °F
Forecast: 9 / 20 °F
Wind: 3 mph from South

Location: Altdorf

Current Time: Jan 17, 2017 at 9:57:09 am

Latest Report: Jan 17, 2017 at 9:00 am


Visibility: N/A

Pressure: 30.38 "Hg (27.13 "Hg at 887m altitude)

Humidity: 73%

Dew Point: 15 °F

Location of EinsiedelnLocation

Past Weather in Einsiedeln — Graph

°F

Einsiedeln Temperature Yesterday

Maximum temperature yesterday: 30 °F (at 4:00 pm)
Minimum temperature yesterday: 24 °F (at 8:00 am)
Average temperature yesterday: 28 °F

High & Low Weather Summary for the Past Weeks

 TemperatureHumidityPressure
High48 °F (Jan 13, 12:00 am)100% (Jan 2, 9:00 am)30.73 "Hg (Jan 2, 9:00 am)
Low8 °F (Jan 7, 5:00 am)48% (Jan 13, 9:00 am)29.50 "Hg (Jan 13, 1:00 am)
Average30 °F80%30.23 "Hg
* Reported Jan 2 8:00 am — Jan 17 8:00 am, Einsiedeln, Weather by CustomWeather, © 2017

Note: Actual official high and low records may vary slightly from our data, if they occured in-between our weather recording intervals... More about our weather records

Advertising

Einsiedeln Weather History for the Previous 24 Hours

Scroll right to see more
 ConditionsComfort  
Time TempWeatherWind HumidityBarometerVisibility
8:00 am
Tue, Jan 17
22 °FCold.3 mph75%30.37 "HgN/A
7:00 am20 °FPassing clouds.2 mph78%30.36 "Hg16 mi
6:00 am24 °FCold.3 mph75%30.33 "HgN/A
5:00 am24 °FCold.5 mph78%30.32 "HgN/A
4:00 am26 °FChilly.1 mph73%30.32 "HgN/A
3:00 am26 °FChilly.7 mph74%30.31 "HgN/A
2:00 am26 °FChilly.8 mph71%30.30 "HgN/A
1:00 am27 °FOvercast.10 mph68%30.29 "Hg9 mi
12:00 am28 °FChilly.9 mph62%30.28 "HgN/A
11:00 pm
Mon, Jan 16
27 °FChilly.12 mph63%30.28 "HgN/A
10:00 pm27 °FSnow. Overcast.6 mph68%30.27 "Hg6 mi
9:00 pm28 °FChilly.12 mph72%30.27 "HgN/A
8:00 pm28 °FChilly.8 mph66%30.25 "HgN/A
7:00 pm27 °FOvercast.6 mph63%30.24 "Hg9 mi
6:00 pm29 °FChilly.10 mph57%30.23 "HgN/A
5:00 pm30 °FChilly.9 mph51%30.22 "HgN/A
4:00 pm30 °FLight snow. Partly sunny.13 mph64%30.20 "Hg6 mi
3:00 pm29 °FChilly.12 mph70%30.19 "HgN/A
2:00 pm28 °FChilly.16 mph84%30.19 "HgN/A
1:00 pm29 °FLight snow. Overcast.13 mph77%30.19 "Hg6 mi
12:00 pm28 °FChilly.3 mph86%30.21 "HgN/A
11:00 am28 °FChilly.14 mph86%30.23 "HgN/A
10:00 am29 °FLight snow. Overcast.8 mph70%30.22 "Hg5 mi
9:00 am26 °FChilly.1 mph83%30.22 "HgN/A
Weather by CustomWeather, © 2017

See weather overviewHow to use our weather pages